{"data":{"norad_id":52139,"intl_designator":"2022-029BD","name":"STARLINK-3730","alt_names":[],"object_type":"PAYLOAD","status":"ACTIVE","operator":null,"country":"US","launch_date":"2022-03-19","launch_site_code":"AFETR","launch_vehicle":null,"mission":null,"orbit_class":"UNKNOWN","rcs_meters":null,"size_class":null,"mass_kg":null,"dimensions":null,"purposes":["comms"],"wikipedia_slug":null,"has_3d_model":false,"image_url":null,"decayed_at":null,"tle_current":{"epoch":"2026-09-20T00:21:22.216608Z","epoch_age_seconds":98122,"freshness":"FRESH","line1":"1 52139U 22029BD  26263.01484047 -.00000294  00000+0  24457-5 0  9994","line2":"2 52139  53.1587 271.6412 0001240  92.9014 267.2131 15.34390905250330","mean_motion":15.34390905,"eccentricity":0.000124,"inclination_deg":53.1587,"raan_deg":271.6412,"arg_perigee_deg":92.9014,"mean_anomaly_deg":267.2131,"bstar":2.4457e-6,"rev_number":25033,"period_min":93.848314357677,"perigee_km":461.88200505551,"apogee_km":463.57854013912,"semimajor_km":6840.8672725973,"source":"CELESTRAK","updated_at":"2026-09-20T09:00:39.992946Z"}}}